RH
36 46 57 61 56 57 57 54 52 54 58 56 56 52 45 46 47 46 38 34 33 44 51 54 46 25 35 8 8 8 13 9 61 90 70 53 32 26 25 26 28 24 19
32 34 46 56 59 54 59 54 55 61 61 59 57 57 56 50 48 49 51 50 42 36 38 47 55 53 39 19 8 6 7 10 10 17 16 14 19 24 21 17 21 23 19
30 30 32 40 48 54 57 63 62 58 58 58 60 59 60 60 55 52 51 51 52 52 43 36 39 50 57 54 40 16 7 6 7 8 9 9 10 11 11 14 14 15 16
25 23 28 27 22 21 31 42 41 44 54 67 67 63 60 62 63 59 59 60 59 56 55 50 41 39 44 53 58 54 36 13 6 6 6 8 9 9 10 12 13 14 14
24 24 24 21 19 17 16 16 16 16 17 29 36 48 57 62 58 52 56 61 62 64 60 58 56 48 44 42 49 58 59 52 32 11 6 7 8 9 28 36 24 22 19
22 20 21 19 18 15 14 13 12 12 12 13 16 24 37 45 48 49 53 57 61 63 63 64 63 62 56 49 45 46 56 61 60 50 27 9 7 8 14 13 16 38 35
20 16 16 16 15 13 11 11 11 11 12 12 12 13 14 16 28 53 54 53 58 61 62 62 64 64 66 64 57 53 52 55 64 66 60 47 17 9 10 12 15 16 19
15 15 14 13 13 12 11 11 11 10 11 12 14 15 15 16 15 16 19 33 46 44 45 48 48 59 58 62 68 65 59 59 58 63 69 67 55 26 12 10 11 12 17
14 13 13 13 12 11 12 12 12 14 15 15 15 14 13 13 14 16 17 17 17 18 39 48 41 44 52 50 56 64 68 66 62 63 62 65 72 64 40 20 12 11 12
13 13 13 13 14 14 13 13 15 15 13 8 5 4 4 4 4 4 4 5 6 8 11 15 37 42 41 39 52 56 65 69 72 68 65 64 63 66 74 55 30 16 14
13 13 14 14 13 13 14 16 14 10 5 4 4 4 4 4 5 5 5 5 5 5 5 5 5 8 12 20 37 41 47 56 70 75 76 72 66 64 64 75 73 51 29
14 14 13 12 14 15 15 11 6 4 4 4 5 5 6 6 6 7 7 7 8 8 7 7 6 6 6 6 8 16 19 28 47 63 75 83 81 72 72 68 71 77 75
15 13 13 15 15 11 6 5 4 5 5 6 6 6 7 7 7 8 8 9 9 10 10 10 10 10 10 8 7 6 8 12 21 34 64 79 88 88 82 78 75 74 78
14 14 15 13 10 6 5 5 5 5 6 6 7 7 8 8 10 12 14 14 14 14 14 14 14 14 14 13 13 12 10 28 59 43 42 68 79 89 90 82 83 83 79
14 15 14 12 8 6 5 5 5 6 6 7 8 9 11 14 15 14 12 10 10 10 10 10 10 10 10 11 13 14 14 12 27 68 64 73 70 66 74 82 89 90 92
14 16 15 12 8 6 6 6 6 6 7 8 10 14 16 14 11 11 12 12 10 8 8 8 8 10 11 14 16 15 14 14 14 15 48 59 80 78 98 91 83 76 74
16 16 14 11 9 6 6 6 6 7 9 12 17 16 11 13 14 10 6 5 4 4 4 3 3 3 4 6 8 14 20 20 16 14 13 25 48 70 73 86 100 89 81
16 15 12 10 8 6 6 6 8 10 16 19 15 10 15 12 6 5 5 5 5 5 4 4 4 4 5 8 11 14 16 24 26 23 18 14 16 35 49 55 69 77 72
14 13 12 9 6 6 7 8 11 18 19 12 11 18 18 11 7 6 6 6 5 4 4 4 4 4 5 10 16 20 23 25 29 33 32 30 25 17 14 14 23 36 27
14 14 12 8 6 7 9 13 19 17 10 15 23 21 12 8 7 6 5 4 4 4 4 4 5 8 13 20 22 22 24 32 36 36 36 35 34 32 28 22 16 13 15
13 10 8 7 9 11 16 20 16 11 18 27 21 13 9 8 6 5 4 5 5 5 5 5 8 17 22 25 24 23 23 25 34 42 43 40 42 41 40 37 34 31 25
9 10 11 14 18 20 20 17 12 21 28 23 15 11 10 6 5 5 6 7 6 6 6 8 12 20 28 29 29 28 28 33 32 34 38 48 57 60 58 51 48 48 46
14 19 20 20 20 19 15 16 27 29 24 20 14 8 6 6 6 7 7 8 7 6 6 9 14 19 23 27 26 22 22 24 34 42 43 43 48 53 65 77 83 71 77
20 15 13 13 13 17 30 33 30 27 20 11 7 6 6 7 8 9 10 9 8 7 6 8 9 10 10 10 10 11 10 12 13 14 41 44 44 48 53 66 65 71 66
12 13 21 33 35 36 33 30 21 9 8 8 7 7 8 9 10 11 11 10 10 8 8 7 7 7 8 10 10 11 13 22 30 32 21 39 48 46 44 44 44 49 58
27 36 35 29 23 18 12 9 8 7 7 6 7 8 10 12 12 13 15 15 13 12 11 11 10 8 7 7 8 8 9 11 17 31 42 42 44 51 50 49 48 48 47
Wind_Speed
8 9 9 8 6 4 3 2 1 0 1 2 4 5 7 8 9 9 10 9 9 9 9 10 11 12 9 9 8 6 1 3 2 6 7 6 5 5 7 7 7 7 6
7 7 7 7 5 3 3 2 2 1 2 3 3 4 5 6 7 8 8 9 9 9 9 9 9 10 10 10 10 8 6 4 7 9 10 8 7 8 9 9 9 8 8
7 7 7 5 4 4 4 4 3 2 3 3 4 4 5 5 6 7 7 7 8 9 9 8 8 8 9 9 10 10 8 7 7 10 11 11 10 10 10 10 9 10 10
5 6 5 5 3 2 2 4 6 6 6 6 6 6 6 6 7 7 8 8 8 8 8 8 8 8 8 9 9 9 9 9 8 8 9 10 11 12 13 12 10 9 9
5 5 4 3 2 1 1 3 4 5 7 8 9 9 8 9 10 10 9 9 9 8 8 9 9 10 9 9 9 9 9 10 9 9 7 7 10 12 13 12 11 10 10
3 3 3 2 2 3 5 5 6 6 7 7 9 10 11 11 12 12 12 12 11 10 11 11 11 11 11 11 11 11 11 11 11 10 9 7 9 9 11 13 13 12 11
3 3 2 3 4 6 8 9 9 9 9 10 11 12 12 14 14 14 14 15 14 14 14 14 14 14 14 13 12 12 12 12 12 12 11 10 8 10 11 12 12 13 13
4 3 3 5 6 8 9 10 11 13 13 14 14 15 15 16 16 17 18 17 17 18 18 18 18 18 18 17 16 15 14 14 13 14 13 11 10 10 11 11 11 12 13
4 4 5 7 8 9 11 14 14 15 16 17 18 18 18 19 19 19 19 19 20 20 19 19 20 19 20 20 20 19 18 17 15 16 15 15 14 12 12 12 13 12 12
5 7 8 9 11 12 14 15 15 17 18 18 18 17 16 16 16 17 17 18 19 20 20 21 21 21 22 22 21 21 21 21 18 19 18 18 17 16 15 15 14 14 14
7 8 10 12 13 14 15 16 17 18 17 17 17 16 16 17 19 19 20 20 20 21 22 22 22 23 23 24 24 24 25 24 23 22 21 20 21 19 18 18 18 17 16
9 10 12 13 14 16 18 18 17 16 16 17 17 18 19 19 21 22 23 24 25 25 25 25 26 27 27 26 26 26 27 27 28 26 25 24 24 23 21 21 21 20 19
11 12 13 14 16 17 17 17 16 17 18 19 19 21 22 23 24 25 27 28 29 30 29 29 29 30 30 30 30 29 29 28 29 30 29 28 27 27 26 25 23 23 23
12 13 14 15 16 15 15 16 18 19 20 21 22 24 25 27 28 29 30 30 32 33 33 33 33 33 33 33 33 32 33 31 29 30 30 30 30 30 30 28 27 26 26
14 15 16 17 16 16 17 18 19 20 22 23 25 27 28 29 30 30 30 29 30 31 32 32 33 33 33 34 35 36 35 36 34 31 28 29 31 31 31 29 29 28 28
15 16 17 18 18 18 19 20 21 22 24 26 28 30 30 29 27 27 27 28 29 30 31 33 33 34 34 34 34 36 37 38 38 38 34 34 33 32 32 31 34 32 30
16 18 19 20 20 20 22 23 24 25 27 29 30 29 27 26 26 26 27 27 28 30 31 32 33 34 34 35 35 35 37 38 39 40 40 39 38 37 38 36 33 38 34
17 19 20 21 21 22 24 24 26 27 30 29 26 25 24 25 25 26 27 29 30 32 33 33 33 33 34 33 33 34 34 35 38 39 40 41 42 42 43 42 43 40 39
19 20 21 22 22 23 25 26 28 30 28 25 25 24 25 26 27 29 31 33 34 34 33 32 31 31 30 30 29 28 30 32 32 34 37 39 41 43 46 47 48 48 48
21 22 22 23 24 25 26 28 29 27 24 24 25 25 26 28 31 33 35 35 33 31 28 26 23 25 25 24 24 24 23 25 28 30 32 34 38 40 43 44 46 47 47
23 21 21 22 24 26 27 27 25 24 24 25 26 27 28 31 34 34 34 31 28 27 24 22 19 19 23 22 19 19 19 20 20 22 26 29 32 34 36 39 41 43 44
19 18 22 25 25 25 24 23 23 23 24 26 27 29 33 35 34 31 28 26 25 24 23 21 18 17 21 22 22 21 18 19 18 18 20 22 25 26 29 34 36 36 37
19 22 23 22 22 22 22 21 22 23 26 28 31 33 33 33 32 29 26 23 22 22 21 20 19 17 17 21 24 22 22 20 18 18 19 20 19 21 25 28 31 31 34
18 19 18 17 17 18 20 21 24 26 29 31 33 33 32 30 29 28 25 23 22 21 21 21 20 20 19 20 23 25 26 26 25 19 17 19 19 23 26 29 30 31 32
14 12 13 14 17 19 22 24 27 29 31 31 31 31 30 28 28 26 25 23 22 22 22 22 22 21 21 22 22 23 23 25 27 28 21 15 18 25 25 28 32 34 36
8 10 13 17 21 24 25 27 28 28 29 29 29 28 28 27 27 26 24 22 22 23 23 25 25 24 23 23 23 23 24 24 24 25 27 17 17 22 24 26 28 30 32
Wind_Direction
177 174 186 189 185 184 193 208 206 88 60 44 38 35 33 32 31 32 27 23 19 20 24 23 23 19 29 11 9 11 343 244 214 184 255 248 253 253 255 252 258 261 260
165 170 177 184 185 211 220 254 280 290 338 348 358 6 11 14 17 19 17 15 15 12 10 12 13 15 14 12 8 357 343 302 268 264 271 274 267 279 283 270 259 257 259
151 160 168 176 186 213 239 253 269 277 292 305 319 329 333 338 348 349 350 356 357 359 1 357 356 356 359 2 3 1 350 331 306 290 286 284 284 279 271 269 260 258 259
142 142 149 153 163 173 234 261 275 276 275 280 289 298 304 306 313 323 327 329 334 335 341 344 342 339 338 340 344 347 348 342 330 312 303 296 281 271 266 263 257 250 249
146 152 162 166 172 211 271 284 285 289 285 282 282 282 282 285 292 296 300 305 310 311 316 321 326 327 324 323 322 323 328 330 335 333 326 302 288 285 280 271 263 253 245
168 178 190 214 256 286 293 295 295 295 293 285 283 284 285 282 284 288 289 289 290 289 294 297 302 306 308 310 312 310 311 313 318 324 328 322 301 289 279 277 273 268 264
223 226 238 276 296 301 304 306 303 298 296 294 292 288 284 284 282 284 281 282 283 280 281 284 288 290 292 294 295 297 300 301 304 308 311 318 319 302 290 280 276 274 270
213 229 265 288 291 296 305 302 300 299 299 298 297 296 295 291 287 283 281 278 274 275 276 277 280 281 283 283 283 286 289 291 293 294 294 298 302 303 290 286 280 278 273
242 271 287 291 292 297 294 291 296 298 297 298 297 297 295 292 290 289 287 285 282 281 276 272 272 274 276 278 277 277 277 279 283 285 286 287 287 288 290 293 287 281 273
252 275 283 287 290 291 290 294 295 296 297 298 298 298 298 298 297 295 293 290 287 286 282 279 273 271 269 269 269 271 271 270 272 276 281 283 282 280 282 284 282 281 278
268 279 285 287 288 289 291 292 295 296 296 295 297 297 296 296 296 297 295 292 290 287 284 284 279 275 271 268 266 265 265 267 266 267 271 275 277 278 277 276 277 279 278
273 280 283 286 289 291 293 295 296 296 297 296 297 298 298 297 296 296 295 293 291 287 284 282 279 280 278 273 268 264 264 265 265 263 263 266 270 272 272 272 269 269 273
271 277 281 284 288 291 292 293 294 297 298 297 298 299 299 299 298 296 294 292 289 288 285 281 280 279 277 278 277 272 266 262 262 263 261 260 261 265 267 268 268 268 267
266 271 276 281 284 286 288 292 294 294 295 297 299 300 301 300 298 296 293 291 289 287 285 284 281 278 276 275 273 272 272 269 266 261 258 258 260 261 263 264 265 264 265
266 274 281 284 286 286 287 287 290 294 298 301 301 299 299 297 295 293 292 292 290 290 289 287 285 281 278 274 272 269 267 268 265 264 259 261 264 259 258 257 255 258 263
269 277 285 287 285 286 289 293 296 300 301 301 302 302 302 301 300 299 297 296 295 293 291 289 286 284 282 277 272 269 266 263 263 262 258 250 254 255 259 264 260 260 257
279 287 287 286 288 290 292 296 300 302 303 304 304 302 301 301 300 300 299 299 298 296 296 296 292 288 284 281 278 273 269 264 261 259 259 257 252 254 255 250 260 262 262
281 285 289 289 289 292 295 298 300 303 303 302 298 298 298 298 297 298 299 299 298 298 297 295 293 291 289 285 281 277 273 270 269 265 261 259 257 254 256 255 256 260 265
285 285 285 286 289 291 294 298 301 303 302 299 299 300 301 301 303 303 302 302 301 300 299 298 296 295 290 289 286 285 282 275 267 262 262 262 261 260 257 256 256 256 257
276 278 283 286 290 294 297 300 302 300 298 300 301 303 306 308 307 307 305 303 302 302 301 300 299 298 297 293 288 287 285 280 273 270 265 260 258 259 260 261 262 263 261
278 285 286 287 290 293 296 298 296 298 303 305 307 308 309 311 310 309 309 309 309 308 307 306 305 301 300 300 299 293 290 281 276 271 268 266 265 262 262 262 261 261 259
282 286 287 289 292 293 293 293 296 299 301 302 305 308 311 312 312 312 311 312 312 311 310 308 308 305 301 300 299 296 289 285 283 274 272 269 266 265 265 264 264 262 261
290 288 290 294 293 293 293 294 297 300 303 306 309 310 313 313 313 314 311 309 308 307 305 308 309 308 304 303 303 303 299 292 283 283 279 276 275 270 261 262 266 267 263
288 289 292 290 288 289 292 297 300 303 305 308 311 312 312 313 315 313 311 309 306 304 302 301 301 301 302 301 301 303 302 301 296 287 276 282 282 276 274 273 272 269 270
278 284 287 291 293 293 295 298 300 303 306 310 313 312 312 314 313 311 310 308 306 305 302 299 298 298 299 299 298 298 300 300 301 300 295 284 282 277 276 275 275 274 273
269 284 293 297 298 299 300 300 302 307 309 310 309 309 311 314 312 307 307 307 306 305 305 306 305 302 299 297 295 296 297 298 298 297 298 292 280 274 277 277 278 279 278